Location: Stara Lesna
(49.1528°N, 20.2911°E)
Time: 22:10:20
(UTC+02:00)

Cosmos 2278 Rocket - Pass Details

Date: 21 September 2019
Orbit: 839 x 847 km, 71.0° (Epoch: 21 October)

Event Time Altitude Azimuth Distance (km) Brightness Sun altitude
Exits shadow 04:18:54 - 308° (NW) 2,621 4.5 -20.4°
Reaches altitude 10° 04:20:00 10° 318° (NW) 2,478 4.5 -20.2°
Maximum altitude 04:21:41 11° 336° (NNW) 2,391 4.6 -19.9°
Drops below altitude 10° 04:23:22 10° 353° (N) 2,481 4.9 -19.7°
Sets 04:28:00 0° 28° (NNE) 3,421 6.2 -19.0°
